Satellite-Ground Cal/Val Region Overpasses Predictions

Prediction of Satellite NPP Overpassing Cal/Val Region: PacNW

Region Location: (Latitude: 10.00, Longitude: 139.50) to (Latitude: 22.70, Longitude: 165.60).

Table of predicted overpasses for the next 14.0 days since TLE Epoch: 3/4/2017
Interval Starting Time Starting Location Ending Time Ending Location
1 03/05/2017 02:39:15 ( 10.05, 159.87) 03/05/2017 02:42:50 ( 22.67, 156.87)
2 03/05/2017 15:11:07 ( 22.69, 157.12) 03/05/2017 15:14:43 ( 10.01, 154.10)
3 03/06/2017 02:20:13 ( 10.05, 164.63) 03/06/2017 02:23:48 ( 22.68, 161.63)
4 03/06/2017 14:52:05 ( 22.68, 161.88) 03/06/2017 14:55:41 ( 10.00, 158.86)
5 03/07/2017 03:42:39 ( 10.01, 144.03) 03/07/2017 03:46:15 ( 22.69, 141.01)
6 03/07/2017 14:34:14 ( 18.45, 165.60) 03/07/2017 14:36:37 ( 10.05, 163.63)
7 03/07/2017 16:14:32 ( 22.67, 141.26) 03/07/2017 16:16:35 ( 15.45, 139.51)
8 03/08/2017 03:23:37 ( 10.02, 148.79) 03/08/2017 03:27:12 ( 22.64, 145.79)
9 03/08/2017 15:55:30 ( 22.66, 146.02) 03/08/2017 15:59:05 ( 10.04, 143.02)
10 03/09/2017 03:04:34 ( 10.03, 153.55) 03/09/2017 03:08:09 ( 22.65, 150.54)
11 03/09/2017 15:36:27 ( 22.65, 150.78) 03/09/2017 15:40:02 ( 10.03, 147.77)
12 03/10/2017 02:45:32 ( 10.04, 158.30) 03/10/2017 02:49:07 ( 22.66, 155.30)
13 03/10/2017 15:17:25 ( 22.64, 155.53) 03/10/2017 15:21:00 ( 10.02, 152.53)
14 03/11/2017 02:26:30 ( 10.05, 163.06) 03/11/2017 02:30:05 ( 22.67, 160.06)
15 03/11/2017 14:58:21 ( 22.69, 160.31) 03/11/2017 15:01:57 ( 10.01, 157.29)
16 03/12/2017 02:10:09 ( 19.57, 165.59) 03/12/2017 02:11:02 ( 22.68, 164.82)
17 03/12/2017 03:48:56 ( 10.01, 142.46) 03/12/2017 03:52:28 ( 22.45, 139.50)
18 03/12/2017 14:39:19 ( 22.68, 165.07) 03/12/2017 14:42:55 ( 10.00, 162.05)
19 03/12/2017 16:20:49 ( 22.67, 139.69) 03/12/2017 16:21:01 ( 21.97, 139.51)
20 03/13/2017 03:29:54 ( 10.02, 147.22) 03/13/2017 03:33:30 ( 22.70, 144.20)
21 03/13/2017 16:01:46 ( 22.66, 144.45) 03/13/2017 16:05:21 ( 10.04, 141.45)
22 03/14/2017 03:10:51 ( 10.03, 151.97) 03/14/2017 03:14:26 ( 22.65, 148.97)
23
